User: anonymous   Login
Location: Unspecified
(0.0000°N, 0.0000°E)
Time: 18:03:20
(UTC+00:00)
Language:

NNS O-29 - Orbit

View from above orbital plane
View from above orbital plane
View from above satellite
View from above satellite

Ground track
Ground track

The orbit data is extracted from the following two-line orbital elements,

1 18362U 87080B   21026.90032986 -.00000011  00000-0 -29766-4 0  9999
2 18362  90.3169  18.1547 0104666 303.2876  67.0168 13.44105568635850
Epoch (UTC): 26 January 2021 21:36:28
Eccentricity: 0.0104666
inclination: 90.3169°
perigee height: 1016 km
apogee height: 1172 km
right ascension of ascending node: 18.1547°
argument of perigee: 303.2876°
revolutions per day: 13.44105568
mean anomaly at epoch: 67.0168°
orbit number at epoch: 63585

The dashed part of the orbit path shows where the satellite is in the earth's shadow,  

DLR